This is the latest recevied weather packets stored in our database for station/object G4AAX-10. If no packets are shown the sender has not sent any weather packets the latest 1 day(s).
| Time | Temp. | Humidity | Pressure | Rain* | Wind** | Luminosity | Snow |
|---|---|---|---|---|---|---|---|
| 1777736633 | 24.44° C | 43% | 1015.4 hPa | - | - | - | - |
| 1777734832 | 25° C | 43% | 1015.5 hPa | - | - | - | - |
| 1777733032 | 25° C | 43% | 1015.6 hPa | - | - | - | - |
| 1777731232 | 25° C | 43% | 1016 hPa | - | - | - | - |
| 1777729432 | 24.44° C | 43% | 1016.3 hPa | - | - | - | - |
| 1777727632 | 25° C | 42% | 1016.4 hPa | - | - | - | - |
| 1777725832 | 25° C | 44% | 1016.5 hPa | - | - | - | - |
| 1777724031 | 24.44° C | 44% | 1016.6 hPa | - | - | - | - |
| 1777722231 | 23.89° C | 44% | 1016.8 hPa | - | - | - | - |
| 1777720431 | 23.89° C | 44% | 1016.8 hPa | - | - | - | - |
| 1777718631 | 23.33° C | 45% | 1016.8 hPa | - | - | - | - |
| 1777716831 | 22.22° C | 45% | 1016.9 hPa | - | - | - | - |
| 1777715030 | 21.67° C | 44% | 1016.9 hPa | - | - | - | - |
| 1777713230 | 21.67° C | 45% | 1017 hPa | - | - | - | - |
| 1777711430 | 21.67° C | 45% | 1017 hPa | - | - | - | - |
| 1777709630 | 21.67° C | 45% | 1016.9 hPa | - | - | - | - |
| 1777707830 | 21.67° C | 44% | 1016.8 hPa | - | - | - | - |
| 1777706030 | 21.67° C | 44% | 1016.8 hPa | - | - | - | - |
| 1777704229 | 21.67° C | 44% | 1016.7 hPa | - | - | - | - |
| 1777702429 | 21.67° C | 43% | 1016.8 hPa | - | - | - | - |
| 1777700629 | 22.22° C | 43% | 1016.8 hPa | - | - | - | - |
| 1777698829 | 22.22° C | 43% | 1016.8 hPa | - | - | - | - |
| 1777697029 | 22.22° C | 43% | 1016.6 hPa | - | - | - | - |
* Rain since midnight (hover to see other rain measurements)
** Current wind speed in m/s (hover to see current wind gust speed)